Wind_Speed
10 8 10 12 15 18 21 21 21 22 22 18 12 5 3 5 9 10 6 5 11 11 13 15 15 17 19 21 21 24 26 31 35 40 47 54 56 59 61 64 71 82 90 95 96
11 12 13 15 18 20 21 21 22 22 17 11 4 1 3 4 8 4 7 12 13 11 14 15 16 18 21 21 22 28 29 35 43 48 51 56 61 61 56 61 73 85 93 100 98
13 14 16 18 19 21 22 22 20 16 10 4 0 1 3 6 8 7 9 12 14 13 16 15 18 20 22 24 27 30 35 41 45 49 54 61 63 61 61 69 78 86 95 103 104
17 18 18 20 21 23 24 19 15 7 3 2 2 2 4 7 10 11 13 15 14 14 17 16 16 21 23 24 28 32 39 44 47 52 57 63 65 64 64 71 82 90 99 103 109
21 22 23 24 23 22 19 13 6 3 4 4 3 4 8 10 12 13 14 16 12 18 20 20 22 26 29 30 30 37 43 44 51 56 62 67 65 71 73 77 85 91 98 107 112
25 26 26 27 24 19 12 4 2 3 4 2 2 4 7 9 11 13 14 16 15 19 22 24 26 28 32 31 35 41 46 46 52 57 63 67 70 75 80 79 88 94 98 103 113
32 32 31 28 21 11 4 5 5 4 2 2 4 7 7 8 12 15 15 17 18 20 23 25 27 30 32 34 39 42 45 49 53 60 65 70 74 79 82 85 86 92 103 108 108
27 26 24 19 13 10 11 10 10 8 8 9 8 9 10 11 14 17 19 20 22 23 26 28 30 31 32 35 38 42 44 51 58 62 67 73 74 78 82 87 96 100 102 104 106
9 8 11 14 20 19 16 13 11 10 9 7 8 9 11 13 15 19 21 22 24 26 28 30 31 32 34 37 39 40 45 52 59 64 70 73 77 83 89 93 94 98 102 104 102
10 16 22 29 24 18 12 10 7 6 5 5 7 9 13 16 18 20 22 24 26 26 27 30 31 31 32 34 36 42 47 53 57 63 72 74 79 85 87 91 99 100 103 103 98
24 28 27 22 18 15 10 8 5 2 5 8 10 12 15 18 20 23 25 28 29 30 31 33 32 32 33 35 38 44 50 57 58 62 69 74 79 83 87 93 98 101 101 103 100
18 18 18 15 12 9 5 3 3 6 7 8 10 14 16 20 23 27 30 31 34 34 34 34 35 34 35 34 39 47 50 56 64 65 68 74 78 84 89 91 97 102 103 101 99
10 11 11 10 7 4 1 2 4 5 7 10 13 16 17 22 27 30 33 35 37 38 38 38 38 34 33 37 43 48 53 58 59 63 70 77 79 85 88 92 97 103 105 100 97
5 7 8 7 2 1 2 2 3 6 8 9 13 18 21 26 30 34 37 38 39 40 41 40 38 38 36 38 43 50 52 54 60 71 73 78 82 87 90 95 98 102 104 99 94
9 8 8 6 3 3 3 4 7 8 9 13 17 21 24 28 31 36 39 39 39 40 41 39 37 37 33 39 48 50 51 54 58 63 74 82 85 88 94 98 101 103 104 102 95
11 10 10 9 8 7 8 10 12 13 15 19 22 25 28 30 33 37 38 38 36 37 38 38 34 34 40 43 50 51 51 55 62 68 73 82 91 92 98 100 103 106 102 101 95
13 14 15 15 15 14 15 15 17 18 22 25 26 29 32 35 36 38 38 37 36 39 37 36 34 38 40 48 57 60 61 63 64 67 74 86 93 97 101 103 105 107 102 99 96
17 17 17 18 19 19 21 21 22 23 26 28 30 33 34 36 38 42 40 38 39 36 32 41 43 43 48 55 58 62 65 67 70 72 78 90 95 99 105 103 106 108 104 100 96
21 21 21 22 23 24 24 26 28 29 30 32 34 34 36 37 37 43 42 40 42 37 35 37 42 48 50 55 62 69 71 73 75 75 78 88 98 104 104 106 108 111 107 103 98
24 24 25 26 26 27 28 30 31 32 33 33 34 35 38 39 41 43 39 41 42 38 40 42 45 47 51 58 64 71 75 77 79 87 87 90 101 105 105 108 108 110 108 104 100
28 26 26 28 29 27 28 29 30 31 32 31 32 35 38 42 44 44 42 43 42 40 41 42 50 55 57 62 71 76 77 77 81 90 99 102 105 109 109 108 109 110 107 105 100
33 33 32 31 32 32 33 33 32 33 32 32 34 37 41 43 44 42 44 45 46 45 48 53 55 58 63 66 72 76 76 84 90 96 104 107 105 111 111 109 106 107 104 102 101
36 37 37 36 35 35 36 36 35 36 35 36 37 42 45 45 42 44 46 49 50 52 55 56 62 62 68 71 74 84 82 87 89 96 105 108 107 112 112 110 107 105 101 98 99
37 37 38 37 36 37 37 37 35 37 38 38 42 44 46 45 43 46 47 51 53 56 59 57 64 72 79 80 80 89 88 91 95 99 106 110 104 105 107 106 103 101 100 96 98
37 37 37 38 38 38 38 37 39 40 42 43 46 47 46 44 45 49 52 55 56 59 60 65 62 71 84 82 80 93 94 94 99 105 111 104 106 105 106 105 103 101 98 95 97
36 36 39 39 39 38 39 41 42 44 46 48 46 45 46 47 50 50 53 55 57 61 63 66 68 71 75 77 80 91 91 93 100 109 110 110 101 106 107 107 104 100 99 96 96
39 39 38 40 42 43 44 43 46 47 47 45 44 46 48 51 54 55 56 59 61 66 62 70 72 77 78 84 84 97 91 93 96 109 109 113 107 105 105 104 104 101 100 95 95
Wind_Direction
237 251 268 287 294 299 303 306 308 311 311 313 313 321 308 342 350 352 3 7 358 6 2 4 1 357 353 345 335 334 336 329 333 331 330 327 326 326 320 310 311 313 315 320 324
248 262 277 290 297 300 303 306 309 309 312 312 309 275 326 344 346 354 4 356 353 357 351 354 351 344 342 345 336 337 333 329 331 332 331 332 330 331 325 324 319 318 319 321 326
259 272 283 290 295 299 303 306 307 312 314 303 292 341 6 347 354 344 337 337 338 334 346 345 349 340 334 334 330 329 330 326 330 333 333 332 333 328 325 322 321 321 322 323 329
268 274 279 287 291 295 299 305 311 323 3 30 68 53 14 353 346 337 325 320 322 320 337 342 330 333 331 331 339 334 333 330 336 336 334 334 334 329 325 323 325 325 326 327 330
272 273 274 279 286 289 295 307 330 33 50 76 55 5 352 345 335 336 333 326 315 324 332 324 321 324 323 323 328 337 334 334 338 336 337 335 334 333 329 322 325 329 329 330 335
273 271 270 273 280 285 288 312 82 92 85 80 5 341 341 344 341 339 336 333 326 329 323 317 319 320 321 321 327 329 330 334 338 337 335 335 333 331 331 329 330 331 334 336 336
274 270 267 267 270 265 220 138 121 94 93 72 25 10 358 338 340 336 329 330 324 321 318 319 315 315 322 323 326 329 331 335 338 334 334 334 333 332 330 332 334 338 340 338 339
277 265 257 250 233 173 147 127 111 101 72 52 36 15 1 349 340 333 326 321 315 311 309 309 309 315 317 319 321 324 329 333 334 332 332 331 332 332 335 336 338 341 343 342 342
277 225 193 170 152 141 129 117 105 92 77 58 33 12 356 349 340 335 329 323 320 318 315 312 307 307 310 310 317 324 328 333 335 333 329 330 331 334 337 340 340 341 344 344 345
110 129 137 138 137 132 130 118 105 81 55 22 1 349 342 335 329 329 328 325 320 318 318 318 315 310 308 310 319 325 328 330 331 331 332 335 334 339 344 345 344 343 343 347 346
110 121 130 134 135 138 128 121 105 56 7 358 353 348 346 338 329 323 319 322 322 322 315 312 312 309 311 313 327 327 327 327 330 335 335 338 338 340 345 346 343 345 345 346 346
117 119 125 129 131 131 125 107 29 356 360 1 360 3 358 349 336 328 327 321 319 318 320 313 310 311 313 317 321 324 324 328 333 334 335 336 341 342 343 344 344 345 346 347 348
130 134 135 136 132 130 148 345 343 348 351 356 360 359 352 348 344 340 337 334 325 319 322 319 313 314 312 318 323 327 327 333 334 335 336 338 342 341 342 343 344 345 346 349 349
183 170 156 147 138 290 296 329 343 342 335 338 348 349 348 340 339 341 343 337 330 325 321 322 319 322 322 325 330 333 334 334 331 333 337 339 345 344 342 343 343 344 346 349 347
205 193 186 211 237 310 301 304 322 323 327 329 334 336 335 334 334 338 339 335 329 327 327 323 322 323 325 329 337 340 335 334 335 336 338 343 341 348 346 343 345 344 345 346 347
220 227 232 243 265 280 280 285 301 304 313 319 326 325 325 327 331 335 336 333 332 330 327 322 326 329 331 336 337 340 339 335 333 335 337 342 341 348 346 345 345 343 344 346 347
250 254 258 263 272 281 282 288 291 297 302 311 317 318 319 323 326 331 334 333 332 329 334 334 330 329 330 338 338 336 336 334 333 335 338 345 342 345 345 344 345 344 345 346 347
261 268 270 270 275 279 283 286 291 295 300 306 311 314 315 320 325 329 332 328 328 328 330 335 333 328 328 331 337 336 336 338 339 343 347 345 340 343 344 345 344 344 346 347 346
261 264 266 269 274 277 283 285 287 292 297 302 307 310 315 320 323 329 331 327 327 324 324 329 328 329 332 333 333 335 338 338 339 340 342 344 340 341 344 343 343 343 345 346 346
260 262 265 267 273 280 284 287 290 294 297 303 308 310 313 317 321 329 325 323 324 328 328 330 329 328 327 333 331 332 340 341 340 339 339 344 340 341 343 341 342 342 342 343 345
259 262 268 270 274 279 287 292 295 298 302 304 307 309 312 317 322 324 321 323 322 322 327 329 330 327 322 328 333 331 335 341 343 341 342 342 340 340 341 341 341 340 341 342 344
260 265 269 273 276 281 288 291 296 300 300 299 304 308 313 318 317 317 318 324 321 319 324 328 330 331 325 332 332 333 339 346 344 342 342 340 341 339 339 338 339 339 339 340 341
259 262 266 271 276 281 287 292 294 298 300 302 305 309 314 315 316 316 317 319 321 321 322 325 325 330 328 332 330 328 338 343 341 340 340 338 339 337 336 335 335 336 337 338 338
263 266 269 274 279 284 288 292 293 294 298 301 305 307 310 312 314 316 316 318 318 321 321 322 327 332 329 333 334 332 339 341 339 337 336 336 336 335 333 333 331 332 334 335 337
269 272 274 278 280 283 286 287 289 294 299 301 305 307 310 312 313 316 318 319 318 317 319 321 323 331 325 329 334 332 336 337 338 336 335 334 332 333 333 332 330 332 332 334 334
267 267 272 274 275 279 281 285 291 296 300 304 306 308 308 309 312 315 316 315 317 317 318 319 324 326 325 327 336 330 332 336 335 331 335 331 330 329 331 331 330 331 331 331 334
265 270 274 278 280 282 284 289 295 298 301 302 302 303 305 307 311 314 315 317 315 316 315 321 323 324 325 326 335 326 332 334 333 328 331 329 327 326 330 329 329 332 331 332 334
Height
10814 10815 10816 10816 10816 10815 10814 10813 10812 10810 10808 10807 10805 10804 10803 10802 10802 10801 10800 10799 10797 10794 10792 10790 10788 10786 10784 10781 10778 10775 10772 10769 10765 10759 10752 10744 10736 10728 10716 10705 10693 10676 10659 10643 10630
10813 10814 10814 10814 10814 10814 10812 10811 10810 10808 10806 10804 10803 10803 10802 10802 10802 10801 10799 10797 10795 10793 10791 10788 10787 10784 10782 10778 10775 10771 10767 10763 10758 10752 10745 10735 10725 10714 10703 10692 10677 10659 10640 10623 10610
10812 10812 10812 10812 10812 10811 10810 10809 10807 10805 10803 10802 10802 10802 10802 10802 10801 10799 10798 10796 10794 10792 10789 10786 10783 10781 10779 10776 10772 10768 10763 10757 10752 10745 10736 10724 10713 10702 10693 10680 10664 10645 10624 10604 10591
10810 10810 10810 10810 10810 10809 10807 10806 10805 10804 10803 10802 10802 10802 10802 10801 10800 10798 10797 10794 10792 10790 10787 10784 10782 10779 10775 10771 10768 10763 10757 10751 10745 10737 10727 10715 10703 10691 10679 10665 10650 10632 10611 10588 10568
10806 10806 10807 10807 10807 10807 10805 10804 10804 10803 10803 10802 10802 10801 10801 10800 10798 10797 10795 10792 10790 10788 10785 10782 10779 10775 10770 10766 10763 10757 10752 10745 10736 10728 10718 10707 10695 10682 10669 10653 10636 10621 10601 10574 10546
10801 10802 10802 10803 10805 10805 10804 10803 10804 10803 10802 10802 10802 10801 10800 10799 10797 10795 10793 10790 10787 10785 10782 10778 10774 10770 10766 10761 10757 10752 10746 10738 10730 10719 10708 10697 10683 10670 10659 10643 10627 10609 10585 10560 10537
10794 10794 10796 10798 10801 10802 10802 10803 10803 10803 10802 10802 10801 10800 10799 10798 10796 10794 10791 10788 10786 10782 10778 10775 10771 10766 10760 10755 10750 10744 10739 10730 10721 10709 10699 10688 10674 10662 10647 10635 10617 10595 10570 10547 10521
10785 10784 10787 10792 10797 10800 10801 10802 10802 10802 10801 10801 10801 10800 10798 10796 10794 10791 10789 10786 10783 10779 10775 10770 10766 10761 10756 10750 10744 10739 10731 10722 10712 10701 10690 10678 10668 10655 10639 10620 10599 10579 10561 10538 10515
10779 10778 10783 10789 10795 10798 10800 10802 10802 10802 10801 10801 10801 10799 10798 10795 10792 10790 10787 10784 10780 10775 10771 10766 10761 10756 10751 10744 10738 10732 10723 10716 10703 10693 10680 10671 10658 10642 10624 10604 10587 10569 10551 10530 10508
10781 10781 10784 10790 10796 10798 10800 10801 10802 10802 10802 10801 10800 10799 10796 10794 10791 10787 10784 10780 10776 10772 10767 10762 10756 10751 10746 10740 10735 10727 10719 10710 10702 10689 10673 10660 10642 10627 10611 10594 10575 10559 10540 10522 10502
10788 10789 10791 10794 10797 10799 10801 10801 10802 10802 10801 10799 10798 10797 10794 10792 10788 10785 10780 10776 10771 10766 10762 10757 10752 10746 10741 10735 10730 10722 10713 10701 10693 10683 10667 10650 10637 10620 10605 10589 10571 10554 10535 10514 10497
10794 10795 10796 10797 10799 10800 10801 10801 10801 10800 10799 10798 10796 10794 10791 10789 10785 10781 10776 10772 10767 10762 10757 10752 10746 10742 10737 10731 10725 10716 10708 10696 10679 10672 10663 10644 10632 10615 10601 10587 10567 10547 10528 10509 10487
10797 10798 10799 10799 10800 10801 10801 10801 10800 10798 10797 10795 10793 10791 10789 10786 10782 10777 10773 10768 10763 10758 10752 10746 10741 10736 10731 10726 10719 10712 10700 10688 10676 10663 10653 10642 10628 10609 10595 10579 10561 10541 10521 10504 10483
10799 10799 10800 10800 10800 10800 10800 10799 10797 10796 10794 10793 10791 10789 10786 10783 10778 10773 10768 10762 10756 10751 10746 10740 10734 10730 10725 10720 10714 10705 10694 10683 10671 10656 10644 10631 10623 10607 10588 10569 10551 10531 10514 10498 10479
10798 10799 10799 10800 10799 10798 10797 10796 10795 10793 10792 10791 10789 10786 10783 10779 10774 10769 10763 10757 10752 10746 10740 10736 10730 10724 10719 10714 10708 10698 10690 10680 10666 10652 10634 10623 10611 10600 10577 10558 10541 10521 10506 10489 10473
10797 10798 10798 10797 10797 10796 10795 10794 10792 10791 10789 10786 10784 10781 10778 10774 10770 10764 10758 10752 10745 10740 10734 10729 10725 10719 10712 10704 10695 10688 10681 10672 10660 10648 10633 10616 10591 10589 10569 10552 10532 10513 10497 10482 10466
10794 10794 10794 10794 10793 10792 10791 10790 10789 10786 10784 10782 10779 10776 10772 10768 10764 10759 10753 10746 10740 10732 10725 10720 10717 10709 10701 10693 10682 10675 10670 10662 10654 10640 10622 10604 10582 10571 10557 10540 10522 10505 10487 10473 10457
10790 10790 10790 10790 10789 10788 10787 10786 10784 10782 10779 10777 10774 10770 10767 10763 10757 10752 10746 10740 10734 10728 10721 10711 10705 10698 10692 10684 10676 10664 10656 10643 10631 10623 10611 10594 10573 10561 10545 10528 10511 10494 10477 10462 10448
10786 10786 10786 10785 10784 10783 10782 10781 10779 10776 10774 10771 10768 10764 10761 10758 10753 10746 10739 10734 10728 10723 10717 10713 10700 10693 10684 10674 10662 10652 10645 10635 10622 10616 10604 10588 10566 10551 10533 10516 10500 10482 10465 10448 10434
10781 10781 10780 10779 10778 10778 10777 10775 10773 10770 10768 10765 10762 10758 10754 10750 10746 10741 10735 10729 10723 10717 10712 10706 10697 10687 10676 10668 10654 10639 10632 10622 10610 10593 10584 10575 10551 10536 10521 10503 10487 10469 10453 10437 10423
10774 10775 10774 10773 10773 10772 10770 10768 10766 10764 10761 10758 10755 10752 10748 10742 10738 10733 10728 10722 10717 10711 10705 10698 10689 10679 10665 10660 10647 10631 10624 10615 10599 10581 10563 10552 10537 10517 10507 10492 10476 10456 10441 10426 10412
10769 10769 10768 10767 10767 10766 10764 10762 10760 10757 10754 10751 10748 10745 10741 10737 10728 10724 10719 10713 10708 10702 10697 10688 10680 10672 10658 10652 10638 10622 10614 10603 10585 10570 10555 10540 10535 10506 10493 10478 10465 10449 10432 10415 10399
10761 10761 10760 10760 10759 10758 10756 10755 10752 10749 10747 10744 10741 10737 10733 10729 10724 10717 10712 10704 10697 10691 10686 10678 10670 10662 10650 10642 10627 10607 10602 10589 10576 10563 10551 10529 10520 10494 10482 10467 10451 10438 10424 10407 10392
10753 10754 10754 10754 10752 10751 10749 10747 10744 10741 10738 10736 10733 10729 10725 10719 10715 10712 10705 10699 10689 10682 10674 10669 10659 10645 10623 10620 10611 10589 10585 10575 10563 10547 10538 10521 10514 10504 10480 10462 10445 10431 10415 10398 10383
10747 10747 10747 10746 10744 10743 10741 10738 10736 10733 10730 10727 10723 10719 10716 10712 10708 10700 10693 10687 10680 10672 10664 10657 10653 10644 10617 10613 10605 10581 10571 10563 10549 10534 10521 10518 10491 10482 10463 10450 10434 10421 10404 10387 10372
10737 10737 10737 10735 10734 10732 10731 10729 10727 10725 10721 10717 10714 10710 10706 10702 10698 10694 10687 10678 10670 10664 10655 10646 10643 10636 10620 10607 10601 10577 10568 10557 10540 10519 10512 10496 10491 10463 10453 10434 10416 10404 10389 10375 10360
10728 10728 10728 10726 10724 10724 10722 10721 10719 10715 10711 10706 10704 10701 10695 10691 10686 10680 10674 10667 10659 10650 10643 10635 10627 10616 10610 10594 10590 10561 10559 10550 10537 10510 10498 10480 10466 10455 10447 10425 10402 10394 10374 10362 10349